Flag for Colombia Weather past 2 weeks in Cartagena, Colombia

Now
88 °F

Partly sunny.


Feels Like: 100 °F
Forecast: 80 / 90 °F
Wind: 6 mph from North

Location: Cartagena / Rafael Nunez

Current Time: Jul 5, 2015 at 10:42:32 AM

Latest Report: Jul 5, 2015 at 10:00 AM


Visibility: N/A

Pressure: 29.81 "Hg

Humidity: 70%

Dew point: 77 °F

Location of CartagenaLocation

Historic Weather in Cartagena — Graph

°F

Cartagena temperature yesterday

Maximum temperature yesterday: 90 °F (at 11:00 AM)
Minimum temperature yesterday: 79 °F (at 6:00 AM)
Average temperature yesterday: 84 °F

Past Weeks' High & Low Weather Summary

 TemperatureHumidityPressure
High104 °F (Jun 24, 1:00 PM)94% (Jun 22, 1:00 AM)29.86 "Hg (Jun 22, 1:00 AM)
Low77 °F (Jul 1, 5:00 AM)33% (Jun 24, 1:00 PM)29.60 "Hg (Jul 3, 4:00 PM)
Average85 °F78%29.76 "Hg
* Reported Jun 20 9:00 AM — Jul 5 9:00 AM, Cartagena, Weather by CustomWeather, © 2015

Note: Actual official high and low records may vary slightly from our data, if they occured in-between our weather recording intervals... More about our weather records

Advertising

Cartagena weather history for previous 24 hours

 ConditionsComfort  
Time TempWeatherWind HumidityBarometerVisibility
9:00 AM
Sun, Jul 5
86 °FClear.3 mph75%29.81 "Hg5 mi
8:00 AM84 °FClear.5 mph79%29.78 "Hg5 mi
7:00 AM81 °FPartly sunny.3 mph89%29.76 "Hg5 mi
6:00 AM79 °FSunny.No wind94%29.74 "Hg10 mi
5:00 AM81 °FClear.3 mph89%29.73 "Hg10 mi
4:00 AM81 °FClear.3 mph89%29.72 "Hg10 mi
3:00 AM81 °FClear.3 mph89%29.71 "Hg10 mi
2:00 AM81 °FClear.2 mph89%29.71 "Hg10 mi
1:00 AM81 °FWarm.N/A89%29.71 "HgN/A
12:00 AM81 °FClear.3 mph89%29.73 "Hg10 mi
11:00 PM
Sat, Jul 4
82 °FClear.5 mph84%29.73 "Hg10 mi
10:00 PM82 °FClear.8 mph84%29.72 "Hg10 mi
9:00 PM82 °FClear.7 mph84%29.71 "Hg10 mi
8:00 PM82 °FClear.12 mph84%29.71 "Hg10 mi
7:00 PM84 °FClear.6 mph79%29.69 "Hg10 mi
6:00 PM86 °FSunny.13 mph70%29.68 "Hg10 mi
5:00 PM90 °FPassing clouds.17 mph63%29.66 "HgN/A
4:00 PM88 °FPassing clouds.16 mph70%29.66 "HgN/A
3:00 PM90 °FPassing clouds.14 mph67%29.67 "HgN/A
2:00 PM88 °FPassing clouds.16 mph70%29.68 "HgN/A
1:00 PM88 °FPassing clouds.17 mph70%29.70 "HgN/A
12:00 PM90 °FPassing clouds.16 mph67%29.71 "Hg6 mi
11:00 AM90 °FClear.12 mph67%29.73 "Hg5 mi
10:00 AM88 °FClear.6 mph66%29.74 "Hg6 mi
Weather by CustomWeather, © 2015

See weather overviewHow to use our weather pages